User: anonymous   Login
Location: Bothell
(47.7630°N, 122.2040°W)
Time: 06:42:05
(UTC-08:00)
Language:

Oscar 16 - Orbit

View from above orbital plane
View from above orbital plane
View from above satellite
View from above satellite

Ground track
Ground track

The orbit data is extracted from the following two-line orbital elements,

1 20439U 90005D   17022.56768288  .00000003  00000-0  17230-4 0  9994
2 20439  98.5963 322.9545 0009916 228.6579 236.1547 14.32664680410557
Epoch (UTC): 22 January 2017 13:37:27
Eccentricity: 0.0009916
inclination: 98.5963°
perigee height: 776 km
apogee height: 790 km
right ascension of ascending node: 322.9545°
argument of perigee: 228.6579°
revolutions per day: 14.32664680
mean anomaly at epoch: 236.1547°
orbit number at epoch: 41055

The dashed part of the orbit path shows where the satellite is in the earth's shadow,  

DLR